Location: Risskov
(56.1972°N, 10.2480°E)
Time: 12:28:42
(UTC+00:00)

NOSS 3-3 (C) - Pass Details

Date: 05 July 2020
Orbit: 824 x 1388 km, 63.4° (Epoch: 03 August)

Event Time Altitude Azimuth Distance (km) Brightness Sun altitude
Rises 22:18:13 0° 227° (SW) 3,476 6.6 -9.9°
Reaches altitude 10° 22:20:34 10° 227° (SW) 2,592 6.0 -10.0°
Maximum altitude 22:26:37 85° 141° (SE) 1,004 4.0 -10.2°
Drops below altitude 10° 22:33:37 10° 53° (NE) 2,977 6.9 -10.4°
Sets 22:36:29 0° 53° (NE) 4,026 7.6 -10.5°
